Sao Miguel d'Oeste, Brazil
Current Conditions -  °F | °C
As of 6:00 AM on Tuesday 21 Oct 2014 (Local Time) from SBCH Reporting Station
Clear Clear  
Wind Chill: 57°   Ceiling: Unl
Heat Index: 57°   Visibility: 6mi
Dew Point: 55°   Wind: 12mph
Humidity: 94%   Direction: 120°ESE
Pressure: 30.09"   Gusts: NA
Location:  26.73°S, 53.52°W
Report Text: SBCH 210800Z 12010KT CAVOK 14/13 Q1019
Loading
Personal Weather Stations






























Interactive Weather Map
Tropical Storm Tracking
New forecast layout! Learn more

10-Day Weather Forecast

Advertisements
Track Severe Weather on mobile